• Em Portugal
  • Lista de países
  • Para 7 dias
  • Temperatura da água
  • Mapas de satélite
  • Mapa do tempo
  • Widgets de tempo
  • user-avatar
    Iniciar Sessão

    Previsão horária em Arwayheer

    Hoje, 22 Janeiro, Segunda-feira

    Tempo Temperatura Precipitação Vento Pressão Humidade
    00:00 -32°C° 0 mm 2 m/s 607 mmHg 88%
    01:00 -32°C° 0 mm 2 m/s 607 mmHg 87%
    02:00 -32°C° 0 mm 2 m/s 606 mmHg 87%
    03:00 -32°C° 0 mm 2 m/s 606 mmHg 87%
    04:00 -32°C° 0 mm 2 m/s 606 mmHg 87%
    05:00 -32°C° 0 mm 2 m/s 606 mmHg 87%
    06:00 -30°C° 0 mm 1 m/s 606 mmHg 87%
    07:00 -30°C° 0 mm 1 m/s 607 mmHg 85%
    08:00 -30°C° 0 mm 1 m/s 607 mmHg 83%
    09:00 -29°C° 0 mm 1 m/s 607 mmHg 81%
    10:00 -28°C° 0 mm 1 m/s 607 mmHg 79%
    11:00 -28°C° 0 mm 1 m/s 607 mmHg 75%
    12:00 -29°C° 0 mm 2 m/s 607 mmHg 72%
    13:00 -28°C° 0 mm 2 m/s 607 mmHg 69%
    14:00 -28°C° 0 mm 2 m/s 607 mmHg 71%
    15:00 -25°C° 0 mm 1 m/s 607 mmHg 73%
    16:00 -25°C° 0 mm 1 m/s 607 mmHg 76%
    17:00 -27°C° 0 mm 1 m/s 607 mmHg 77%
    18:00 -27°C° 0 mm 1 m/s 607 mmHg 78%
    19:00 -28°C° 0 mm 1 m/s 606 mmHg 79%
    20:00 -28°C° 0 mm 1 m/s 606 mmHg 78%
    21:00 -28°C° 0 mm 1 m/s 606 mmHg 78%
    22:00 -28°C° 0 mm 1 m/s 606 mmHg 78%
    23:00 -28°C° 0 mm 1 m/s 606 mmHg 77%

    Amanhã, 23 Janeiro, Terça-feira

    Tempo Temperatura Precipitação Vento Pressão Humidade
    00:00 -28°C° 0 mm 1 m/s 606 mmHg 76%
    01:00 -28°C° 0 mm 1 m/s 606 mmHg 75%
    02:00 -28°C° 0 mm 1 m/s 605 mmHg 75%
    03:00 -28°C° 0 mm 1 m/s 605 mmHg 74%
    04:00 -28°C° 0 mm 1 m/s 605 mmHg 73%
    05:00 -28°C° 0 mm 1 m/s 605 mmHg 72%
    06:00 -28°C° 0 mm 1 m/s 604 mmHg 70%
    07:00 -28°C° 0 mm 1 m/s 604 mmHg 69%
    08:00 -27°C° 0 mm 1 m/s 605 mmHg 68%
    09:00 -25°C° 0 mm 1 m/s 605 mmHg 66%
    10:00 -24°C° 0 mm 1 m/s 605 mmHg 65%
    11:00 -23°C° 0 mm 1 m/s 605 mmHg 62%
    12:00 -22°C° 0 mm 1 m/s 605 mmHg 59%
    13:00 -21°C° 0 mm 0 m/s 605 mmHg 55%
    14:00 -22°C° 0 mm 0 m/s 605 mmHg 59%
    15:00 -22°C° 0 mm 0 m/s 604 mmHg 63%
    16:00 -23°C° 0 mm 0 m/s 604 mmHg 66%
    17:00 -23°C° 0 mm 0 m/s 604 mmHg 67%
    18:00 -24°C° 0 mm 0 m/s 604 mmHg 68%
    19:00 -25°C° 0 mm 0 m/s 604 mmHg 69%
    20:00 -25°C° 0 mm 1 m/s 604 mmHg 68%
    21:00 -25°C° 0 mm 1 m/s 604 mmHg 68%
    22:00 -25°C° 0 mm 1 m/s 604 mmHg 68%
    23:00 -25°C° 0 mm 1 m/s 605 mmHg 67%

    Depois de amanhã, 24 Janeiro, Quarta-feira

    Tempo Temperatura Precipitação Vento Pressão Humidade
    00:00 -25°C° 0 mm 1 m/s 605 mmHg 66%
    01:00 -25°C° 0 mm 1 m/s 605 mmHg 65%
    02:00 -27°C° 0 mm 1 m/s 605 mmHg 64%
    03:00 -29°C° 0 mm 2 m/s 605 mmHg 64%
    04:00 -29°C° 0 mm 2 m/s 605 mmHg 64%
    05:00 -29°C° 0 mm 2 m/s 605 mmHg 63%
    06:00 -29°C° 0 mm 2 m/s 606 mmHg 63%
    07:00 -29°C° 0 mm 2 m/s 606 mmHg 63%
    08:00 -29°C° 0 mm 2 m/s 607 mmHg 63%
    09:00 -28°C° 0 mm 2 m/s 608 mmHg 63%
    10:00 -24°C° 0 mm 1 m/s 608 mmHg 63%
    11:00 -24°C° 0 mm 1 m/s 609 mmHg 61%
    12:00 -23°C° 0 mm 1 m/s 609 mmHg 58%
    13:00 -22°C° 0 mm 1 m/s 609 mmHg 56%
    14:00 -22°C° 0 mm 1 m/s 609 mmHg 59%
    15:00 -23°C° 0 mm 1 m/s 609 mmHg 63%
    16:00 -23°C° 0 mm 1 m/s 608 mmHg 66%
    17:00 -24°C° 0 mm 1 m/s 609 mmHg 67%
    18:00 -25°C° 0 mm 1 m/s 609 mmHg 68%
    19:00 -27°C° 0 mm 1 m/s 609 mmHg 69%
    20:00 -26°C° 0 mm 0 m/s 609 mmHg 69%
    21:00 -26°C° 0 mm 0 m/s 609 mmHg 69%
    22:00 -26°C° 0 mm 0 m/s 609 mmHg 69%
    23:00 -26°C° 0 mm 0 m/s 609 mmHg 69%

    25 Janeiro, Quinta-feira

    Tempo Temperatura Precipitação Vento Pressão Humidade
    00:00 -26°C° 0 mm 0 m/s 609 mmHg 69%
    01:00 -26°C° 0 mm 0 m/s 609 mmHg 69%
    02:00 -27°C° 0 mm 0 m/s 609 mmHg 69%
    03:00 -27°C° 0 mm 0 m/s 609 mmHg 69%
    04:00 -27°C° 0 mm 0 m/s 608 mmHg 70%
    05:00 -28°C° 0 mm 1 m/s 608 mmHg 70%
    06:00 -28°C° 0 mm 1 m/s 608 mmHg 70%
    07:00 -28°C° 0 mm 1 m/s 608 mmHg 70%
    08:00 -27°C° 0 mm 1 m/s 609 mmHg 69%
    09:00 -27°C° 0 mm 1 m/s 609 mmHg 69%
    10:00 -25°C° 0 mm 1 m/s 609 mmHg 68%
    11:00 -24°C° 0 mm 1 m/s 609 mmHg 66%
    12:00 -26°C° 0 mm 2 m/s 609 mmHg 65%
    13:00 -25°C° 0 mm 2 m/s 609 mmHg 63%
    14:00 -25°C° 0 mm 2 m/s 608 mmHg 67%
    15:00 -26°C° 0 mm 2 m/s 608 mmHg 70%
    16:00 -23°C° 0 mm 1 m/s 607 mmHg 74%
    17:00 -24°C° 0 mm 1 m/s 607 mmHg 75%
    18:00 -25°C° 0 mm 1 m/s 607 mmHg 77%
    19:00 -25°C° 0 mm 0 m/s 607 mmHg 79%
    20:00 -26°C° 0 mm 0 m/s 607 mmHg 78%
    21:00 -27°C° 0 mm 1 m/s 607 mmHg 78%
    22:00 -27°C° 0 mm 1 m/s 607 mmHg 78%
    23:00 -27°C° 0 mm 1 m/s 607 mmHg 77%

    26 Janeiro, Sexta-feira

    Tempo Temperatura Precipitação Vento Pressão Humidade
    00:00 -27°C° 0 mm 1 m/s 607 mmHg 77%
    01:00 -27°C° 0 mm 1 m/s 607 mmHg 76%
    02:00 -27°C° 0 mm 1 m/s 607 mmHg 76%
    03:00 -29°C° 0 mm 2 m/s 607 mmHg 75%
    04:00 -29°C° 0 mm 2 m/s 607 mmHg 74%
    05:00 -29°C° 0 mm 2 m/s 607 mmHg 74%
    06:00 -29°C° 0 mm 2 m/s 608 mmHg 73%
    07:00 -29°C° 0 mm 2 m/s 608 mmHg 72%
    08:00 -28°C° 0 mm 2 m/s 609 mmHg 71%
    09:00 -27°C° 0 mm 2 m/s 609 mmHg 70%
    10:00 -27°C° 0 mm 2 m/s 610 mmHg 69%
    11:00 -26°C° 0 mm 2 m/s 610 mmHg 67%
    12:00 -25°C° 0 mm 2 m/s 610 mmHg 65%
    13:00 -25°C° 0 mm 2 m/s 610 mmHg 64%
    14:00 -25°C° 0 mm 2 m/s 610 mmHg 67%
    15:00 -25°C° 0 mm 2 m/s 610 mmHg 70%
    16:00 -26°C° 0 mm 2 m/s 610 mmHg 74%
    17:00 -27°C° 0 mm 2 m/s 610 mmHg 76%
    18:00 -27°C° 0 mm 2 m/s 610 mmHg 77%
    19:00 -28°C° 0 mm 2 m/s 610 mmHg 79%
    20:00 -28°C° 0 mm 2 m/s 611 mmHg 79%
    21:00 -29°C° 0 mm 2 m/s 611 mmHg 79%
    22:00 -29°C° 0 mm 2 m/s 611 mmHg 78%
    23:00 -29°C° 0 mm 2 m/s 611 mmHg 78%

    27 Janeiro, Sábado

    Tempo Temperatura Precipitação Vento Pressão Humidade
    00:00 -29°C° 0 mm 2 m/s 611 mmHg 78%
    01:00 -29°C° 0 mm 2 m/s 611 mmHg 78%
    02:00 -29°C° 0 mm 2 m/s 611 mmHg 78%
    03:00 -29°C° 0 mm 2 m/s 611 mmHg 77%
    04:00 -32°C° 0 mm 3 m/s 611 mmHg 77%
    05:00 -30°C° 0 mm 2 m/s 611 mmHg 76%
    06:00 -30°C° 0 mm 2 m/s 611 mmHg 76%
    07:00 -30°C° 0 mm 2 m/s 611 mmHg 75%
    08:00 -29°C° 0 mm 2 m/s 611 mmHg 74%
    09:00 -28°C° 0 mm 2 m/s 612 mmHg 72%
    10:00 -29°C° 0 mm 3 m/s 612 mmHg 71%
    11:00 -27°C° 0 mm 3 m/s 612 mmHg 67%
    12:00 -26°C° 0 mm 3 m/s 612 mmHg 64%
    13:00 -25°C° 0 mm 3 m/s 612 mmHg 60%
    14:00 -26°C° 0 mm 3 m/s 612 mmHg 63%
    15:00 -25°C° 0 mm 2 m/s 612 mmHg 65%
    16:00 -25°C° 0 mm 2 m/s 612 mmHg 68%
    17:00 -26°C° 0 mm 2 m/s 612 mmHg 68%
    18:00 -27°C° 0 mm 2 m/s 612 mmHg 69%
    19:00 -28°C° 0 mm 2 m/s 611 mmHg 70%
    20:00 -28°C° 0 mm 2 m/s 611 mmHg 69%
    21:00 -28°C° 0 mm 2 m/s 612 mmHg 69%
    22:00 -28°C° 0 mm 2 m/s 612 mmHg 68%
    23:00 -28°C° 0 mm 2 m/s 612 mmHg 67%
    Mostrar mais